This is the latest recevied weather packets stored in our database for station/object VR2R-13. If no packets are shown the sender has not sent any weather packets the latest 1 day(s).
| Time | Temp. | Humidity | Pressure | Rain* | Wind** | Luminosity | Snow |
|---|---|---|---|---|---|---|---|
| 1778047552 | 17.78° C | 98% | 914 hPa | 0 mm | 0.45 m/s, 98° | - | - |
| 1778047370 | 17.78° C | 98% | 914.1 hPa | 0 mm | 1.34 m/s, 94° | - | - |
| 1778047192 | 17.78° C | 98% | 914 hPa | 0 mm | 1.34 m/s, 108° | - | - |
| 1778047071 | 17.78° C | 98% | 914 hPa | 0 mm | 1.79 m/s, 106° | - | - |
| 1778046832 | 17.78° C | 98% | 914.1 hPa | 0 mm | 0.45 m/s, 53° | - | - |
| 1778046770 | 17.78° C | 98% | 914.2 hPa | 0 mm | 0.89 m/s, 45° | - | - |
| 1778046472 | 17.78° C | 98% | 914.1 hPa | 0 mm | 0.89 m/s, 102° | - | - |
| 1778046470 | 17.78° C | 98% | 914.1 hPa | 0 mm | 0.89 m/s, 92° | - | - |
| 1778046170 | 17.78° C | 98% | 914.1 hPa | 0 mm | 1.79 m/s, 99° | - | - |
| 1778046112 | 17.78° C | 98% | 914.1 hPa | 0 mm | 0.45 m/s, 129° | - | - |
| 1778045870 | 18.33° C | 98% | 914.2 hPa | 0 mm | 0.89 m/s, 113° | - | - |
| 1778045570 | 18.33° C | 98% | 914.3 hPa | 0 mm | 1.79 m/s, 96° | - | - |
| 1778045391 | 17.78° C | 98% | 914.3 hPa | 0 mm | 0.45 m/s, 75° | - | - |
| 1778045271 | 17.78° C | 98% | 914.4 hPa | 0 mm | 0 m/s | - | - |
| 1778044972 | 18.33° C | 98% | 914.5 hPa | 0 mm | 0 m/s | - | - |
| 1778044672 | 18.33° C | 98% | 914.5 hPa | 0 mm | 1.79 m/s, 136° | - | - |
| 1778044670 | 18.33° C | 98% | 914.5 hPa | 0 mm | 1.79 m/s, 134° | - | - |
| 1778044370 | 18.33° C | 98% | 914.6 hPa | 0 mm | 1.34 m/s, 141° | - | - |
| 1778044313 | 18.33° C | 98% | 914.5 hPa | 0 mm | 0.89 m/s, 123° | - | - |
| 1778044070 | 17.78° C | 98% | 914.6 hPa | 0 mm | 0.45 m/s, 139° | - | - |
| 1778043951 | 18.33° C | 98% | 914.6 hPa | 0 mm | 0.45 m/s, 96° | - | - |
| 1778043770 | 18.33° C | 98% | 914.6 hPa | 0 mm | 0.45 m/s, 99° | - | - |
| 1778043591 | 17.78° C | 98% | 914.6 hPa | 0 mm | 0 m/s | - | - |
| 1778043470 | 17.78° C | 98% | 914.7 hPa | 0 mm | 0 m/s | - | - |
| 1778043231 | 17.78° C | 98% | 914.7 hPa | 0 mm | 1.34 m/s, 90° | - | - |
* Rain latest hour (hover to see other rain measurements)
** Current wind speed in m/s (hover to see current wind gust speed)